GW2055 Weather Reports


Display with metric or nautical units.
time (UTC)temp
F
wind
direction
speed
MPH
gust
MPH
rain 1hr
in
rain 24hr
in
rain mn
in
humidity
%
barometer
mb
20260509083102 52 0 0.0 0.0 0.00 0.01 0.00 82 1010.4
20260509081600 52 0 0.0 0.0 0.00 0.01 0.00 82 1010.4
20260509080100 53 0 0.0 0.0 0.00 0.01 0.00 82 1010.3
20260509074607 53 0 0.0 0.0 0.00 0.01 0.00 82 1010.4
20260509073056 53 0 0.0 0.0 0.00 0.01 0.00 82 1010.4
20260509071612 53 0 0.0 0.0 0.00 0.01 0.00 83 1010.1
20260509070058 54 0 0.0 0.0 0.00 0.01 0.00 82 1010.4
20260509064601 54 0 0.0 0.0 0.00 0.01 0.00 83 1010.7
20260509063059 54 0 0.0 0.0 0.00 0.01 0.00 83 1010.8
20260509061603 55 0 0.0 0.0 0.00 0.01 0.00 83 1010.6
20260509054609 56 0 0.0 0.0 0.00 0.01 0.00 83 1010.5
20260509053100 56 0 0.0 0.0 0.00 0.01 0.00 83 1010.5
20260509051606 57 0 0.0 0.0 0.00 0.01 0.00 83 1010.8
20260509050057 57 0 0.0 0.0 0.00 0.01 0.00 83 1011.1
20260509044557 57 0 0.0 0.0 0.00 0.01 0.01 83 1011.1
20260509043102 57 0 0.0 0.0 0.00 0.01 0.01 83 1010.9
20260509041558 58 0 0.0 0.0 0.00 0.01 0.01 83 1011.0
20260509040058 58 0 0.0 0.0 0.00 0.01 0.01 84 1010.8
20260509034557 59 0 0.0 0.0 0.00 0.01 0.01 84 1010.8
20260509033058 59 0 0.0 0.0 0.00 0.01 0.01 84 1010.5
20260509031619 60 0 0.0 0.0 0.00 0.01 0.01 84 1010.2
20260509030100 61 0 0.0 0.0 0.00 0.01 0.01 84 1010.0
20260509024604 61 0 0.0 0.0 0.00 0.01 0.01 83 1009.7
20260509023102 62 0 0.0 0.0 0.00 0.01 0.01 83 1009.6
20260509021556 62 0 0.0 0.0 0.00 0.01 0.01 82 1009.4
20260509020058 63 0 0.0 0.0 0.00 0.01 0.01 82 1009.2
20260509014556 64 0 0.0 0.0 0.00 0.01 0.01 80 1009.0
20260509013110 65 0 0.0 0.0 0.00 0.01 0.01 79 1008.6
20260509011559 66 0 0.0 1.0 0.00 0.01 0.01 77 1008.2
20260509010058 66 0 0.0 3.0 0.00 0.01 0.01 76 1008.0
20260509004558 67 0 0.0 4.0 0.00 0.01 0.01 74 1008.0
20260509003100 68 232 1.0 6.0 0.00 0.01 0.01 73 1007.7
20260509001557 70 182 2.0 8.0 0.00 0.01 0.01 74 1007.3
20260509000108 71 0 0.0 5.0 0.01 0.01 0.01 74 1007.0
20260508234609 71 0 0.0 5.0 0.01 0.01 0.01 75 1006.1
20260508233100 69 253 0.0 1.0 0.01 0.01 0.01 80 1006.1
20260508231606 68 0 0.0 1.0 0.01 0.01 0.01 77 1005.6
20260508230107 68 0 1.0 4.0 0.00 0.00 0.00 76 1005.4
20260508224558 68 96 1.0 7.0 0.00 0.00 0.00 77 1005.1
20260508223057 68 136 1.0 9.0 0.00 0.00 0.00 77 1005.7
20260508221601 68 92 1.0 6.0 0.00 0.00 0.00 78 1006.4
20260508220058 72 128 0.0 2.0 0.00 0.00 0.00 73 1007.2
20260508214610 72 0 0.0 1.0 0.00 0.00 0.00 68 1007.5
20260508213115 72 69 0.0 2.0 0.00 0.00 0.00 68 1007.0
20260508211559 74 0 0.0 2.0 0.00 0.00 0.00 67 1007.5
20260508210056 76 0 0.0 1.0 0.00 0.00 0.00 61 1008.3
20260508204615 77 0 0.0 3.0 0.00 0.00 0.00 51 1008.5
20260508203102 78 0 0.0 3.0 0.00 0.00 0.00 50 1008.0
20260508201614 79 0 0.0 5.0 0.00 0.00 0.00 48 1008.1
20260508200133 79 147 1.0 5.0 0.00 0.00 0.00 49 1008.1
20260508194557 79 0 1.0 5.0 0.00 0.00 0.00 48 1008.5
20260508193059 79 0 1.0 8.0 0.00 0.00 0.00 46 1008.6
20260508191558 81 209 1.0 4.0 0.00 0.00 0.00 46 1008.8
20260508190104 80 0 0.0 6.0 0.00 0.00 0.00 48 1008.9
20260508184557 80 101 1.0 5.0 0.00 0.00 0.00 47 1008.8
20260508183056 79 221 1.0 6.0 0.00 0.00 0.00 47 1008.9
20260508181615 78 0 1.0 6.0 0.00 0.00 0.00 47 1009.1
20260508180118 79 214 1.0 5.0 0.00 0.00 0.00 48 1009.5
20260508174608 77 53 1.0 7.0 0.00 0.00 0.00 50 1009.3
20260508173056 77 51 0.0 6.0 0.00 0.00 0.00 54 1009.7
20260508171557 76 175 0.0 6.0 0.00 0.00 0.00 53 1009.9
20260508170059 76 178 1.0 9.0 0.00 0.00 0.00 51 1010.6
20260508164557 75 105 1.0 6.0 0.00 0.00 0.00 53 1010.9
20260508163056 74 236 2.0 7.0 0.00 0.00 0.00 51 1010.9
20260508161556 74 319 1.0 8.0 0.00 0.00 0.00 52 1011.0
20260508160056 73 194 1.0 5.0 0.00 0.00 0.00 55 1011.0
20260508154559 72 173 1.0 7.0 0.00 0.00 0.00 56 1011.2
20260508153100 71 186 1.0 7.0 0.00 0.00 0.00 60 1011.3
20260508151604 70 173 1.0 8.0 0.00 0.00 0.00 59 1011.6
20260508150055 70 203 1.0 7.0 0.00 0.00 0.00 60 1011.7
20260508144600 69 254 2.0 7.0 0.00 0.00 0.00 60 1012.0
20260508143100 68 198 1.0 8.0 0.00 0.00 0.00 63 1012.3
20260508141610 66 277 1.0 6.0 0.00 0.00 0.00 65 1012.5
20260508140113 65 132 1.0 6.0 0.00 0.00 0.00 67 1012.7
20260508134555 63 180 0.0 3.0 0.00 0.00 0.00 72 1012.7
20260508133103 61 0 0.0 6.0 0.00 0.00 0.00 74 1012.8
20260508131603 59 176 0.0 3.0 0.00 0.00 0.00 76 1012.7
20260508130056 58 117 1.0 4.0 0.00 0.00 0.00 78 1012.6
20260508124558 55 155 0.0 2.0 0.00 0.00 0.00 81 1012.8
20260508123058 53 105 0.0 4.0 0.00 0.00 0.00 82 1012.6
20260508121605 52 0 0.0 4.0 0.00 0.00 0.00 83 1012.4
20260508114604 50 0 0.0 2.0 0.00 0.00 0.00 84 1012.5
20260508113101 49 0 0.0 2.0 0.00 0.00 0.00 84 1012.4
20260508111602 49 0 0.0 1.0 0.00 0.00 0.00 84 1012.3
20260508110104 49 0 0.0 0.0 0.00 0.00 0.00 82 1012.1
20260508104558 49 0 0.0 0.0 0.00 0.00 0.00 81 1012.2
20260508103135 50 0 0.0 0.0 0.00 0.00 0.00 80 1012.2
20260508101627 51 0 0.0 0.0 0.00 0.00 0.00 79 1012.0
20260508100106 52 0 0.0 0.0 0.00 0.00 0.00 77 1012.0
20260508094615 53 0 0.0 0.0 0.00 0.00 0.00 76 1011.8
20260508093100 53 0 0.0 0.0 0.00 0.00 0.00 75 1011.7
20260508091556 54 0 0.0 2.0 0.00 0.00 0.00 74 1011.5
20260508090107 54 164 0.0 2.0 0.00 0.00 0.00 74 1011.4
20260508084556 54 0 0.0 3.0 0.00 0.00 0.00 74 1011.4